TimeEST,TemperatureF,Dew PointF,Humidity,Sea Level PressureIn,VisibilityMPH,Wind Direction,Wind SpeedMPH,Gust SpeedMPH,PrecipitationIn,Events,Conditions,WindDirDegrees,DateUTC
12:53 AM,32.0,26.1,79,30.04,10.0,East,5.8,-,N/A,,Clear,100,2012-11-07 05:53:00
1:53 AM,30.9,26.1,82,30.05,10.0,East,3.5,-,N/A,,Clear,90,2012-11-07 06:53:00
2:53 AM,30.0,26.1,85,30.06,10.0,East,5.8,-,N/A,,Mostly Cloudy,80,2012-11-07 07:53:00
3:53 AM,30.9,26.1,82,30.05,10.0,East,6.9,-,N/A,,Mostly Cloudy,80,2012-11-07 08:53:00
4:53 AM,30.0,25.0,82,30.07,10.0,ENE,6.9,-,N/A,,Clear,70,2012-11-07 09:53:00
5:53 AM,28.0,23.0,81,30.09,10.0,ENE,5.8,-,N/A,,Clear,60,2012-11-07 10:53:00
6:53 AM,32.0,26.1,79,30.09,10.0,East,5.8,-,N/A,,Scattered Clouds,80,2012-11-07 11:53:00
7:53 AM,32.0,27.0,82,30.10,8.0,NE,3.5,-,N/A,,Overcast,50,2012-11-07 12:53:00
8:53 AM,37.9,30.0,73,30.11,10.0,NNE,4.6,-,N/A,,Scattered Clouds,30,2012-11-07 13:53:00
9:53 AM,39.9,30.0,68,30.12,10.0,NE,8.1,-,N/A,,Scattered Clouds,50,2012-11-07 14:53:00
10:13 AM,41.0,30.2,65,30.10,10.0,NE,10.4,-,N/A,,Mostly Cloudy,50,2012-11-07 15:13:00
10:53 AM,42.1,30.9,65,30.13,10.0,ENE,8.1,-,N/A,,Scattered Clouds,60,2012-11-07 15:53:00
11:03 AM,42.8,30.2,61,30.12,10.0,NE,10.4,-,N/A,,Mostly Cloudy,50,2012-11-07 16:03:00
11:53 AM,42.1,30.9,65,30.14,10.0,ENE,8.1,-,N/A,,Overcast,70,2012-11-07 16:53:00
12:03 PM,42.8,32.0,66,30.12,10.0,NE,8.1,-,N/A,,Overcast,50,2012-11-07 17:03:00
12:36 PM,42.8,30.2,61,30.12,10.0,East,8.1,-,N/A,,Overcast,80,2012-11-07 17:36:00
12:53 PM,43.0,32.0,65,30.13,10.0,ENE,9.2,-,N/A,,Overcast,60,2012-11-07 17:53:00
1:53 PM,43.0,32.0,65,30.12,10.0,NE,8.1,-,N/A,,Overcast,40,2012-11-07 18:53:00
2:53 PM,45.0,30.9,58,30.11,10.0,NNE,10.4,-,N/A,,Mostly Cloudy,30,2012-11-07 19:53:00
3:12 PM,42.8,32.0,66,30.09,10.0,NNE,9.2,-,N/A,,Overcast,30,2012-11-07 20:12:00
3:53 PM,43.0,30.9,62,30.12,10.0,NE,9.2,-,N/A,,Scattered Clouds,40,2012-11-07 20:53:00
4:53 PM,39.9,30.9,70,30.14,10.0,NE,8.1,-,N/A,,Clear,40,2012-11-07 21:53:00
5:53 PM,37.0,30.0,76,30.16,10.0,North,5.8,-,N/A,,Clear,10,2012-11-07 22:53:00
6:53 PM,36.0,30.0,79,30.16,10.0,NE,4.6,-,N/A,,Clear,50,2012-11-07 23:53:00
7:53 PM,34.0,28.9,82,30.18,10.0,NE,4.6,-,N/A,,Clear,40,2012-11-08 00:53:00
8:53 PM,34.0,28.9,82,30.19,10.0,ENE,5.8,-,N/A,,Clear,70,2012-11-08 01:53:00
9:53 PM,33.1,28.0,82,30.19,10.0,East,3.5,-,N/A,,Clear,90,2012-11-08 02:53:00
10:53 PM,32.0,27.0,82,30.19,10.0,Calm,Calm,-,N/A,,Clear,0,2012-11-08 03:53:00
11:53 PM,30.9,28.0,89,30.19,9.0,Calm,Calm,-,N/A,,Clear,0,2012-11-08 04:53:00